Location: Hermaringen
(48.5952°N, 10.2585°E)
Time: 16:45:06
(UTC+00:00)

Altair - Visible Passes

Search period start: 16 February 2026 00:00
Search period end: 26 February 2026 00:00
Orbit: 1502 x 1682 km, 47.2° (Epoch: 15 February)

Date Brightness Start Highest point End Pass type
(mag) Time Alt. Az. Time Alt. Az. Time Alt. Az.
16 Feb 9.4 01:55:13 11° SE 01:57:25 12° ESE 02:00:09 10° ESE visible
16 Feb 8.4 03:53:17 16° SSW 03:59:55 41° SE 04:08:29 10° ENE visible
17 Feb 8.4 03:29:51 22° S 03:34:48 38° SE 03:43:11 10° ENE visible
17 Feb 7.7 05:29:22 10° WSW 05:38:35 74° SSE 05:48:09 10° E visible
18 Feb 8.4 03:06:18 28° S 03:09:41 35° SE 03:17:52 10° ENE visible
18 Feb 7.7 05:04:20 11° WSW 05:13:23 72° SSE 05:22:53 10° E visible
19 Feb 8.4 02:42:41 30° SSE 02:44:35 33° SE 02:52:33 10° E visible
19 Feb 7.7 04:40:43 17° WSW 04:48:11 69° SSE 04:57:36 10° E visible
20 Feb 8.5 02:18:59 30° SE 02:19:29 31° SE 02:27:13 10° E visible
20 Feb 7.6 04:17:01 24° SW 04:22:59 67° SSE 04:32:21 10° ENE visible
21 Feb 8.6 01:55:13 28° SE 01:55:13 28° SE 02:01:51 10° E visible
21 Feb 7.6 03:53:15 33° SW 03:57:48 64° SSE 04:07:05 10° ENE visible
22 Feb 8.8 01:31:24 24° ESE 01:31:24 24° ESE 01:36:29 10° E visible
22 Feb 7.6 03:29:25 42° SSW 03:32:36 62° SSE 03:41:49 10° ENE visible
22 Feb 7.6 05:27:45 10° W 05:37:02 84° S 05:46:38 10° E visible
23 Feb 9.1 01:07:33 19° ESE 01:07:33 19° ESE 01:11:05 10° E visible
23 Feb 7.6 03:05:33 51° SSW 03:07:26 59° SSE 03:16:34 10° ENE visible
23 Feb 7.5 05:03:34 14° W 05:11:48 83° S 05:21:22 10° E visible
24 Feb 9.3 00:43:39 15° E 00:43:39 15° E 00:45:39 10° E visible
24 Feb 7.6 02:41:39 55° SSE 02:42:17 56° SSE 02:51:19 10° ENE visible
24 Feb 7.5 04:39:39 20° W 04:46:34 83° S 04:56:06 10° E visible
25 Feb 9.5 00:19:43 11° E 00:19:43 11° E 00:20:10 10° E visible
25 Feb 7.7 02:17:43 53° SE 02:17:43 53° SE 02:26:04 10° ENE visible
25 Feb 7.4 04:15:43 28° WSW 04:21:20 82° S 04:30:50 10° E visible
